This is the latest recevied weather packets stored in our database for station/object WV8BRW. If no packets are shown the sender has not sent any weather packets the latest 10 day(s).
| Time | Temp. | Humidity | Pressure | Rain* | Wind** | Luminosity | Snow |
|---|---|---|---|---|---|---|---|
| 1777220418 | 13.33° C | 83% | 1016.8 hPa | 0 mm | - | 247 W/m² | - |
| 1777220118 | 13.33° C | 83% | 1016.6 hPa | 0 mm | - | 264 W/m² | - |
| 1777219815 | 12.78° C | 84% | 1016.7 hPa | 0 mm | - | 267 W/m² | - |
| 1777219513 | 12.78° C | 84% | 1016.7 hPa | 0 mm | - | 251 W/m² | - |
| 1777219209 | 12.78° C | 84% | 1016.9 hPa | 0 mm | - | 228 W/m² | - |
| 1777218904 | 12.78° C | 85% | 1016.7 hPa | 0 mm | - | 200 W/m² | - |
| 1777218601 | 12.78° C | 84% | 1016.9 hPa | 0 mm | - | 202 W/m² | - |
| 1777218301 | 12.78° C | 85% | 1016.6 hPa | 0 mm | - | 221 W/m² | - |
| 1777217998 | 12.78° C | 85% | 1016.7 hPa | 0 mm | - | 230 W/m² | - |
| 1777217694 | 12.78° C | 85% | 1016.8 hPa | 0 mm | - | 241 W/m² | - |
| 1777217389 | 12.78° C | 85% | 1016.8 hPa | 0 mm | - | 258 W/m² | - |
| 1777217086 | 12.78° C | 86% | 1016.8 hPa | 0 mm | - | 199 W/m² | - |
| 1777216783 | 12.78° C | 86% | 1016.9 hPa | 0 mm | - | 200 W/m² | - |
| 1777216479 | 12.78° C | 87% | 1016.6 hPa | 0 mm | - | 179 W/m² | - |
| 1777216173 | 12.78° C | 86% | 1016.9 hPa | 0 mm | - | 173 W/m² | - |
| 1777215867 | 12.78° C | 86% | 1016.6 hPa | 0 mm | - | 178 W/m² | - |
| 1777215564 | 12.78° C | 87% | 1016.7 hPa | 0 mm | - | 165 W/m² | - |
| 1777215260 | 12.78° C | 86% | 1016.5 hPa | 0 mm | - | 161 W/m² | - |
| 1777214956 | 12.78° C | 86% | 1016.7 hPa | 0 mm | - | 156 W/m² | - |
| 1777214655 | 12.78° C | 86% | 1016.5 hPa | 0 mm | - | 141 W/m² | - |
| 1777214350 | 13.33° C | 84% | 1016.6 hPa | 0 mm | - | 144 W/m² | - |
| 1777214049 | 13.33° C | 84% | 1016.3 hPa | 0 mm | - | 150 W/m² | - |
| 1777213744 | 12.78° C | 84% | 1016.3 hPa | 0 mm | - | 150 W/m² | - |
| 1777213440 | 12.78° C | 84% | 1016.3 hPa | 0 mm | - | 142 W/m² | - |
| 1777213137 | 12.78° C | 84% | 1016.1 hPa | 0 mm | - | 133 W/m² | - |
* Rain latest hour (hover to see other rain measurements)
** Current wind speed in m/s (hover to see current wind gust speed)